Location: Buenos Aires
(34.6076°S, 58.4371°W)
Time: 19:11:58
(UTC-03:00)

X-37B - Visible Passes

Search period start: 24 June 2021 00:00
Search period end: 04 July 2021 00:00
Orbit: 386 x 389 km, 45.0° (Epoch: 23 June)

Date Brightness Start Highest point End Pass type
(mag) Time Alt. Az. Time Alt. Az. Time Alt. Az.
25 Jun 4.4 07:06:24 10° NE 07:06:50 10° NE 07:07:16 10° NE visible
27 Jun 3.2 06:43:59 10° N 06:46:29 21° NE 06:49:02 10° E visible
28 Jun 3.9 05:47:46 10° NE 05:48:21 10° NE 05:48:56 10° NE visible
28 Jun 0.6 07:21:21 10° WNW 07:24:34 84° SW 07:27:49 10° ESE visible
29 Jun 1.6 06:24:56 28° NNW 06:26:15 45° NE 06:29:22 10° ESE visible
30 Jun 4.1 05:30:09 12° E 05:30:09 12° E 05:30:35 10° E visible
30 Jun 1.1 07:02:29 19° W 07:04:30 42° SSW 07:07:37 10° SE visible
01 Jul 2.1 06:07:25 33° SE 06:07:25 33° SE 06:09:20 10° ESE visible
02 Jul 1.8 06:44:26 26° SSW 06:44:31 26° SSW 06:47:19 10° SE visible
03 Jul 3.7 05:48:59 11° SE 05:48:59 11° SE 05:49:08 10° SE visible
03 Jul 2.7 07:21:18 10° SW 07:23:15 15° S 07:25:13 10° SSE visible
